Iowa Falls, IA

1:04 AM CST on February 14, 2016 (GMT -0600)
Iowa Falls Municipal

Weather History for KIFA - October, 2013

Change the Weather History Date:

Saturday, October 5, 2013

  Actual Average Record
Temperature  
Mean Temperature 56 °F -  
Max Temperature 67 °F 66 °F 95 °F (1963)
Min Temperature 46 °F 43 °F 25 °F (1952)
Degree Days  
Heating Degree Days 8    
Growing Degree Days 6 (Base 50)    
Moisture  
Dew Point 43 °F    
Average Humidity 68    
Maximum Humidity 91    
Minimum Humidity 44    
Precipitation  
Precipitation 0.35 in - - ()
Sea Level Pressure  
Sea Level Pressure 29.84 in    
Wind  
Wind Speed 8 mph (SW)    
Max Wind Speed 17 mph    
Max Gust Speed 23 mph    
Visibility 10 miles    
Events Rain    
Averages and records for this station are not official NWS values.
T = Trace of Precipitation, MM = Missing Value Source: NWS Daily Summary

Daily Weather History Graph

Daily Weather History Graph

Search for Another Location

Airport or City:

Trip Planner

Search our weather history database for the weather conditions in past years. The results will help you decide how hot, cold, wet, or windy it might be!

Date:

Astronomy

Oct. 05, 2013 Rise Set
Actual Time 7:14 AM CDT 6:47 PM CDT
Civil Twilight 6:46 AM CDT 7:15 PM CDT
Nautical Twilight 6:14 AM CDT 7:47 PM CDT
Astronomical Twilight 5:41 AM CDT 8:20 PM CDT
Moon 7:56 AM CDT (10/5) 7:04 PM CDT (10/5)
Length of Visible Light 12h 28m
Length of Day
11h 32m
New Moon, 1% of the Moon is Illuminated
Oct 5
New Moon
Oct 11
First Quarter
Oct 18
Full
Oct 26
Last Quarter
Nov 3
New

Hourly Weather History & Observations

Time (CDT) Temp. Dew Point Humidity Pressure Visibility Wind Dir Wind Speed Gust Speed Precip Events Conditions
12:15 AM 67.5 °F 63.9 °F 88% 29.80 in 2.5 mi SW 8.1 mph 16.1 mph 0.35 in Rain Light Rain
12:35 AM 65.8 °F 63.1 °F 91% 29.80 in 10.0 mi South 6.9 mph - 0.35 in   Overcast
12:55 AM 67.1 °F 64.4 °F 91% 29.80 in 10.0 mi SW 6.9 mph - 0.35 in   Overcast
1:15 AM 66.7 °F 64.0 °F 91% 29.81 in 10.0 mi WSW 6.9 mph - N/A   Mostly Cloudy
1:35 AM 66.4 °F 61.5 °F 84% 29.82 in 10.0 mi West 8.1 mph - N/A   Scattered Clouds
1:55 AM 64.6 °F 61.2 °F 89% 29.83 in 10.0 mi WSW 5.8 mph - N/A   Clear
2:15 AM 63.9 °F 60.8 °F 90% 29.84 in 10.0 mi WSW 6.9 mph - N/A   Clear
2:35 AM 63.7 °F 60.3 °F 89% 29.84 in 10.0 mi WSW 11.5 mph - N/A   Clear
2:55 AM 61.9 °F 57.7 °F 86% 29.84 in 10.0 mi WSW 9.2 mph - N/A   Clear
3:15 AM 61.2 °F 57.4 °F 87% 29.85 in 10.0 mi WSW 8.1 mph - N/A   Scattered Clouds
3:35 AM 60.1 °F 56.8 °F 89% 29.84 in 10.0 mi West 3.5 mph - N/A   Mostly Cloudy
3:55 AM 58.8 °F 55.2 °F 88% 29.84 in 10.0 mi WSW 5.8 mph - N/A   Scattered Clouds
4:15 AM 57.7 °F 54.1 °F 88% 29.84 in 10.0 mi West 3.5 mph - N/A   Scattered Clouds
4:35 AM 57.2 °F 53.6 °F 88% 29.84 in 10.0 mi West 8.1 mph - N/A   Clear
4:55 AM 56.7 °F 53.1 °F 88% 29.82 in 10.0 mi West 10.4 mph - N/A   Scattered Clouds
5:15 AM 56.3 °F 53.2 °F 89% 29.85 in 10.0 mi West 9.2 mph - N/A   Mostly Cloudy
5:35 AM 55.2 °F 50.9 °F 85% 29.85 in 10.0 mi WSW 8.1 mph - N/A   Scattered Clouds
5:55 AM 54.7 °F 50.9 °F 87% 29.86 in 10.0 mi WSW 5.8 mph - N/A   Scattered Clouds
6:15 AM 54.3 °F 50.9 °F 88% 29.87 in 1.8 mi WSW 4.6 mph - N/A   Mostly Cloudy
6:35 AM 53.1 °F 49.1 °F 86% 29.87 in 10.0 mi West 3.5 mph - N/A   Mostly Cloudy
6:55 AM 52.7 °F 48.9 °F 87% 29.88 in 10.0 mi Calm Calm - N/A   Scattered Clouds
7:15 AM 51.6 °F 46.4 °F 82% 29.89 in 10.0 mi WSW 5.8 mph - N/A   Overcast
7:35 AM 51.3 °F 46.2 °F 83% 29.90 in 10.0 mi West 12.7 mph - N/A   Overcast
7:55 AM 49.5 °F 43.0 °F 78% 29.90 in 10.0 mi West 10.4 mph - N/A   Overcast
8:15 AM 48.4 °F 41.7 °F 78% 29.91 in 10.0 mi WSW 9.2 mph 17.3 mph N/A   Scattered Clouds
8:35 AM 47.3 °F 40.3 °F 77% 29.92 in 10.0 mi SW 9.2 mph 16.1 mph N/A   Mostly Cloudy
8:55 AM 46.6 °F 39.6 °F 77% 29.93 in 10.0 mi SW 10.4 mph - N/A   Mostly Cloudy
9:15 AM 47.5 °F 38.7 °F 71% 29.92 in 10.0 mi WSW 11.5 mph - N/A   Scattered Clouds
9:35 AM 48.7 °F 38.7 °F 68% 29.92 in 10.0 mi WSW 13.8 mph 18.4 mph N/A   Clear
9:55 AM 49.6 °F 38.1 °F 65% 29.90 in 10.0 mi WSW 10.4 mph - N/A   Clear
10:15 AM 50.0 °F 37.6 °F 62% 29.89 in 10.0 mi SW 6.9 mph - N/A   Scattered Clouds
10:35 AM 49.8 °F 38.3 °F 65% 29.90 in 10.0 mi SW 10.4 mph - N/A   Mostly Cloudy
10:55 AM 49.8 °F 37.6 °F 63% 29.91 in 10.0 mi SW 8.1 mph - N/A   Overcast
11:15 AM 50.5 °F 37.9 °F 62% 29.90 in 10.0 mi SW 12.7 mph - N/A   Overcast
11:35 AM 50.9 °F 37.0 °F 59% 29.89 in 10.0 mi SW 12.7 mph 16.1 mph N/A   Overcast
11:55 AM 52.7 °F 37.0 °F 55% 29.88 in 10.0 mi WSW 10.4 mph - N/A   Mostly Cloudy
12:15 PM 53.2 °F 38.5 °F 57% 29.87 in 10.0 mi WSW 10.4 mph - N/A   Scattered Clouds
12:35 PM 53.8 °F 37.0 °F 53% 29.88 in 10.0 mi WSW 12.7 mph - N/A   Scattered Clouds
12:55 PM 54.9 °F 37.2 °F 51% 29.86 in 10.0 mi SW 9.2 mph - N/A   Scattered Clouds
1:15 PM 55.9 °F 37.4 °F 50% 29.85 in 10.0 mi SSW 9.2 mph - N/A   Clear
1:35 PM 56.7 °F 38.3 °F 50% 29.85 in 10.0 mi SW 12.7 mph - N/A   Clear
1:55 PM 57.7 °F 38.3 °F 48% 29.84 in 10.0 mi South 10.4 mph - N/A   Scattered Clouds
2:15 PM 58.1 °F 36.9 °F 45% 29.84 in 10.0 mi SW 10.4 mph 17.3 mph N/A   Scattered Clouds
2:35 PM 58.1 °F 36.5 °F 44% 29.84 in 10.0 mi SW 13.8 mph 18.4 mph N/A   Mostly Cloudy
2:55 PM 58.8 °F 37.0 °F 44% 29.82 in 10.0 mi SSW 11.5 mph 17.3 mph N/A   Overcast
3:15 PM 57.4 °F 37.8 °F 48% 29.82 in 10.0 mi SSW 11.5 mph - N/A   Overcast
3:35 PM 59.0 °F 38.3 °F 46% 29.82 in 10.0 mi SW 11.5 mph - N/A   Overcast
3:55 PM 57.7 °F 38.3 °F 48% 29.81 in 10.0 mi SW 13.8 mph - N/A   Overcast
4:15 PM 57.2 °F 38.1 °F 49% 29.80 in 10.0 mi SSW 11.5 mph - N/A   Overcast
4:35 PM 57.7 °F 38.1 °F 48% 29.80 in 10.0 mi WSW 12.7 mph 17.3 mph N/A   Mostly Cloudy
4:55 PM 58.5 °F 36.5 °F 44% 29.80 in 10.0 mi SSW 16.1 mph 21.9 mph N/A   Mostly Cloudy
5:15 PM 57.7 °F 37.2 °F 46% 29.80 in 10.0 mi SW 17.3 mph 20.7 mph N/A   Scattered Clouds
5:35 PM 55.8 °F 35.6 °F 47% 29.80 in 10.0 mi WSW 13.8 mph 18.4 mph N/A   Scattered Clouds
5:55 PM 54.1 °F 35.6 °F 50% 29.80 in 10.0 mi SW 12.7 mph 23.0 mph N/A   Clear
6:15 PM 53.1 °F 36.0 °F 52% 29.81 in 10.0 mi SW 13.8 mph 17.3 mph N/A   Clear
6:35 PM 51.3 °F 35.8 °F 55% 29.82 in 10.0 mi SW 10.4 mph 18.4 mph N/A   Clear
6:55 PM 49.6 °F 35.8 °F 59% 29.82 in 10.0 mi SW 8.1 mph - N/A   Clear
7:15 PM 47.7 °F 36.5 °F 65% 29.82 in 10.0 mi SSW 4.6 mph - N/A   Clear
7:35 PM 46.6 °F 37.2 °F 70% 29.82 in 10.0 mi SSW 5.8 mph - N/A   Scattered Clouds
7:55 PM 48.0 °F 37.4 °F 67% 29.82 in 10.0 mi SSW 6.9 mph - N/A   Overcast
8:15 PM 48.2 °F 37.9 °F 68% 29.82 in 10.0 mi SW 4.6 mph - N/A   Overcast
8:35 PM 48.7 °F 36.5 °F 63% 29.82 in 10.0 mi SW 6.9 mph - N/A   Mostly Cloudy
8:55 PM 46.9 °F 35.2 °F 64% 29.82 in 10.0 mi SSW 5.8 mph - N/A   Scattered Clouds
9:15 PM 47.3 °F 36.3 °F 66% 29.82 in 10.0 mi SSW 4.6 mph - N/A   Mostly Cloudy
9:35 PM 47.8 °F 36.3 °F 64% 29.81 in 10.0 mi SSW 4.6 mph - N/A   Overcast
9:55 PM 48.2 °F 35.8 °F 62% 29.81 in 10.0 mi SSW 5.8 mph - N/A   Overcast
10:15 PM 48.2 °F 36.1 °F 63% 29.81 in 10.0 mi SSW 4.6 mph - N/A   Overcast
10:35 PM 48.4 °F 36.0 °F 62% 29.80 in 10.0 mi SW 6.9 mph - N/A   Overcast
10:55 PM 48.4 °F 35.6 °F 61% 29.80 in 10.0 mi WSW 9.2 mph - N/A   Overcast
11:15 PM 48.2 °F 35.1 °F 60% 29.79 in 10.0 mi WSW 5.8 mph - N/A   Overcast
11:35 PM 47.7 °F 35.4 °F 63% 29.79 in 10.0 mi SW 5.8 mph - N/A   Overcast
11:55 PM 47.5 °F 36.7 °F 66% 29.77 in 10.0 mi Calm Calm - N/A   Overcast